CAPE
1038 926 796 772 1043 740 1099 851 831 492 344 0 421 675 853 1082 1006 1141 1067 838 1014 1131 1249 1349 1340 899 899 1098 1449 1433 1567 1132 823 780 848 890 796 1027 1023 1605 2266 1942 1540
885 851 777 958 787 1055 715 908 988 648 98 596 674 1033 1033 1077 1434 1313 1448 1139 989 1060 1365 1175 1084 1339 1329 1612 1073 1031 1348 1384 1042 1168 1093 1171 549 987 841 1455 1649 1428 1416
972 819 937 615 790 783 961 824 896 688 654 873 940 1351 1273 1262 1117 907 879 1093 1179 1024 996 932 994 1092 1320 850 831 964 1108 878 769 1035 1042 829 867 1233 1361 1422 1211 1318 1369
626 359 501 537 617 771 863 836 766 1039 1017 1057 1148 1045 1068 810 616 969 860 1140 851 1048 906 1062 1094 1030 1133 1061 703 993 1262 971 1246 872 1076 877 1012 1369 1317 1317 1060 1219 1221
186 267 382 388 447 553 487 424 594 982 849 726 723 744 436 659 680 535 572 657 515 331 443 531 575 659 586 404 431 562 714 712 932 892 757 918 1066 1001 1305 1309 1147 779 849
142 225 234 278 339 291 328 388 391 270 435 703 658 406 358 409 263 292 156 201 201 78 5 78 395 311 365 483 595 533 557 827 846 856 816 923 969 631 870 997 422 622 882
234 348 415 309 191 160 148 163 278 274 224 230 372 436 436 239 158 85 148 120 221 179 87 430 341 104 116 129 122 403 556 643 607 580 372 294 294 72 185 197 214 413 590
541 323 166 123 110 123 70 37 137 136 81 162 198 173 62 104 37 14 138 406 257 253 261 195 125 68 67 38 42 20 32 144 163 73 0 0 21 74 90 149 139 128 154
294 144 64 49 49 42 93 22 72 63 94 149 56 33 21 18 1 117 449 200 148 72 67 79 64 51 38 5 0 0 0 0 0 0 0 45 1 0 0 0 0 0 0
286 149 90 63 3 1 0 0 2 62 34 37 27 7 16 0 7 56 164 117 92 56 63 65 56 36 23 0 0 0 0 0 0 0 0 0 0 0 0 0 0 0 0
283 133 192 73 39 23 0 0 1 1 0 0 0 3 11 0 10 34 72 98 95 81 63 46 11 0 0 1 7 2 0 0 0 0 0 0 0 0 0 0 0 0 0
191 164 110 272 71 56 17 1 6 0 0 0 0 0 8 8 16 8 23 44 48 48 52 50 23 6 1 0 9 1 0 0 0 0 0 0 0 0 0 0 0 0 0
155 164 102 76 118 74 43 33 24 50 0 0 2 0 1 0 3 6 16 29 46 19 3 1 2 0 0 0 3 5 0 0 0 0 0 0 0 0 0 0 0 0 0
122 79 67 68 181 137 119 46 17 2 0 0 0 0 3 0 0 0 0 0 0 0 0 0 0 0 0 0 0 0 0 0 0 0 0 0 0 0 0 0 0 0 0
120 85 68 62 77 84 84 134 81 38 7 8 7 1 0 0 0 0 0 0 0 0 0 0 0 0 0 0 0 0 0 0 0 0 0 0 0 0 0 0 0 0 0
53 43 96 64 83 68 47 130 112 82 17 1 0 0 0 0 0 0 0 0 0 0 0 0 0 0 0 0 0 0 0 0 0 0 0 0 0 0 0 0 0 0 0
32 53 43 42 49 81 31 47 102 8 0 0 0 0 0 0 0 0 0 0 0 0 0 0 0 0 0 0 0 0 0 0 0 0 0 0 0 0 0 0 0 0 0
0 0 0 0 0 0 0 0 0 0 0 0 0 0 0 0 0 0 0 0 0 0 0 0 0 0 0 0 0 0 0 0 0 0 0 0 0 0 0 0 0 0 0
0 0 0 0 0 0 0 0 0 0 0 0 0 0 0 0 0 0 0 0 0 0 0 0 0 0 0 0 0 0 0 0 0 0 0 0 0 0 0 0 0 0 0
0 0 0 0 0 0 0 0 0 0 0 0 0 0 0 0 0 0 0 0 0 0 0 0 0 0 0 0 0 0 0 0 0 0 0 0 0 0 0 0 0 0 0
0 0 0 0 0 0 0 0 0 0 0 0 0 0 0 0 0 0 0 0 0 0 0 0 0 0 0 0 0 0 0 0 0 0 0 0 0 0 0 0 0 0 0
0 0 0 0 0 0 0 0 0 0 0 0 0 0 0 0 0 0 0 0 0 0 0 0 0 0 0 0 0 0 0 0 0 0 0 0 0 0 0 0 0 0 0
0 0 0 0 0 0 0 0 0 0 0 0 0 0 0 0 0 0 0 0 0 0 0 0 0 0 0 0 0 0 0 0 0 0 0 0 0 0 0 0 0 0 0
0 0 0 0 0 0 0 0 0 0 0 0 0 0 0 0 0 0 0 0 0 0 0 0 0 0 0 0 0 0 0 0 0 0 0 0 0 0 0 0 0 0 0
0 0 0 0 0 0 0 0 0 0 0 0 0 0 0 0 0 0 0 0 0 0 0 0 0 0 0 0 0 0 0 0 0 0 0 0 0 0 0 0 0 0 0
4 7 9 12 6 10 4 2 0 1 0 0 0 0 0 0 0 0 0 0 0 0 0 0 0 0 0 0 0 0 0 0 0 0 0 0 0 0 0 0 0 0 0
CIN
-48 -34 -24 -40 -20 -41 -32 -46 -67 -40 -34 -0 -33 -17 -19 -7 -15 -13 -16 -23 -25 -17 -19 -20 -15 -25 -46 -53 -66 -69 -37 -34 -26 -28 -41 -49 -40 -20 -20 -39 -37 -44 -27
-22 -32 -39 -23 -17 -21 -27 -24 -17 -29 -122 -100 -111 -20 -16 -29 -13 -13 -9 -17 -15 -17 -8 -9 -19 -20 -15 -21 -45 -56 -50 -36 -48 -32 -38 -39 -61 -65 -20 -24 -29 -29 -47
-13 -29 -16 -30 -28 -32 -22 -18 -29 -26 -41 -79 -37 -14 -18 -12 -20 -19 -35 -20 -10 -12 -19 -24 -30 -27 -18 -15 -33 -30 -46 -76 -59 -38 -38 -32 -23 -31 -40 -61 -82 -97 -93
-25 -18 -25 -21 -11 -12 -21 -27 -36 -35 -26 -29 -12 -21 -23 -15 -17 -13 -30 -21 -16 -16 -39 -24 -24 -23 -29 -26 -24 -29 -41 -49 -41 -40 -29 -36 -32 -33 -42 -65 -113 -104 -113
-193 -158 -35 -73 -96 -55 -79 -46 -9 -20 -25 -20 -17 -11 -11 -8 -18 -42 -52 -33 -24 -60 -21 -81 -23 -47 -14 -37 -30 -68 -65 -70 -62 -51 -64 -52 -39 -49 -25 -13 -26 -101 -110
-161 -27 -14 -64 -27 -55 -22 -40 -91 -130 -12 -11 -3 -6 -22 -44 -81 -51 -127 -50 -153 -213 -305 -188 -48 -30 -55 -54 -42 -28 -38 -25 -22 -20 -24 -17 -23 -39 -12 -9 -72 -58 -31
-43 -37 -69 -99 -91 -49 -33 -76 -58 -47 -25 -8 -13 -8 -10 -38 -30 -76 -71 -112 -63 -48 -58 -19 -22 -52 -41 -40 -37 -39 -23 -11 -15 -18 -29 -50 -75 -111 -79 -65 -76 -31 -7
-48 -82 -138 -116 -86 -67 -43 -51 -26 -27 -2 -4 -6 -10 -12 -11 -16 -27 -83 -29 -24 -23 -26 -29 -45 -46 -36 -50 -47 -58 -33 -54 -34 -8 -0 -0 -27 -40 -44 -46 -51 -72 -70
-76 -127 -97 -40 -84 -69 -13 -6 -5 -29 -1 -0 -0 -0 -0 -14 -7 -59 -26 -28 -35 -36 -48 -42 -46 -43 -41 -6 -0 -0 -0 -0 -0 -0 -0 -10 -2 -0 -0 -0 -0 -0 -0
-68 -68 -62 -63 -113 -5 -0 -0 -3 -7 -24 -1 -5 -7 -10 -0 -29 -33 -21 -42 -34 -31 -39 -29 -27 -26 -24 -0 -0 -0 -0 -0 -0 -0 -0 -0 -0 -0 -0 -0 -0 -0 -0
-32 -46 -42 -65 -71 -81 -0 -0 -0 -0 -0 -0 -4 -4 -4 -0 -27 -16 -23 -28 -42 -46 -36 -27 -19 -0 -0 -4 -4 -2 -0 -0 -0 -0 -0 -0 -0 -0 -0 -0 -0 -0 -0
-46 -26 -23 -2 -49 -31 -42 -0 -1 -0 -0 -0 -0 -0 -40 -17 -9 -15 -14 -16 -17 -42 -56 -56 -48 -33 -4 -0 -2 -2 -0 -0 -0 -0 -0 -0 -0 -0 -0 -0 -0 -0 -0
-40 -41 -32 -41 -21 -38 -46 -49 -61 -19 -0 -0 -0 -0 -0 -0 -1 -4 -1 -12 -9 -7 -33 -5 -6 -6 -0 -0 -40 -40 -0 -0 -0 -0 -0 -0 -0 -0 -0 -0 -0 -0 -0
-41 -64 -42 -62 -6 -10 -17 -33 -18 -2 -0 -0 -0 -0 -0 -0 -0 -0 -0 -0 -0 -0 -0 -0 -0 -0 -0 -0 -0 -0 -0 -0 -0 -0 -0 -0 -0 -0 -0 -0 -0 -0 -0
-24 -36 -48 -21 -7 -12 -3 -0 -0 -5 -16 -6 -49 -15 -0 -0 -0 -0 -0 -0 -0 -0 -0 -0 -0 -0 -0 -0 -0 -0 -0 -0 -0 -0 -0 -0 -0 -0 -0 -0 -0 -0 -0
-10 -13 -43 -10 -5 -3 -9 -0 -6 -1 -7 -0 -0 -0 -0 -0 -0 -0 -0 -0 -0 -0 -0 -0 -0 -0 -0 -0 -0 -0 -0 -0 -0 -0 -0 -0 -0 -0 -0 -0 -0 -0 -0
-14 -10 -16 -26 -3 -0 -31 -2 -2 -1 -0 -0 -0 -0 -0 -0 -0 -0 -0 -0 -0 -0 -0 -0 -0 -0 -0 -0 -0 -0 -0 -0 -0 -0 -0 -0 -0 -0 -0 -0 -0 -0 -0
-0 -0 -0 -0 -0 -0 -0 -0 -0 -0 -0 -0 -0 -0 -0 -0 -0 -0 -0 -0 -0 -0 -0 -0 -0 -0 -0 -0 -0 -0 -0 -0 -0 -0 -0 -0 -0 -0 -0 -0 -0 -0 -0
-0 -0 -0 -0 -0 -0 -0 -0 -0 -0 -0 -0 -0 -0 -0 -0 -0 -0 -0 -0 -0 -0 -0 -0 -0 -0 -0 -0 -0 -0 -0 -0 -0 -0 -0 -0 -0 -0 -0 -0 -0 -0 -0
-0 -0 -0 -0 -0 -0 -0 -0 -0 -0 -0 -0 -0 -0 -0 -0 -0 -0 -0 -0 -0 -0 -0 -0 -0 -0 -0 -0 -0 -0 -0 -0 -0 -0 -0 -0 -0 -0 -0 -0 -0 -0 -0
-0 -0 -0 -0 -0 -0 -0 -0 -0 -0 -0 -0 -0 -0 -0 -0 -0 -0 -0 -0 -0 -0 -0 -0 -0 -0 -0 -0 -0 -0 -0 -0 -0 -0 -0 -0 -0 -0 -0 -0 -0 -0 -0
-0 -0 -0 -0 -0 -0 -0 -0 -0 -0 -0 -0 -0 -0 -0 -0 -0 -0 -0 -0 -0 -0 -0 -0 -0 -0 -0 -0 -0 -0 -0 -0 -0 -0 -0 -0 -0 -0 -0 -0 -0 -0 -0
-0 -0 -0 -0 -0 -0 -0 -0 -0 -0 -0 -0 -0 -0 -0 -0 -0 -0 -0 -0 -0 -0 -0 -0 -0 -0 -0 -0 -0 -0 -0 -0 -0 -0 -0 -0 -0 -0 -0 -0 -0 -0 -0
-0 -0 -0 -0 -0 -0 -0 -0 -0 -0 -0 -0 -0 -0 -0 -0 -0 -0 -0 -0 -0 -0 -0 -0 -0 -0 -0 -0 -0 -0 -0 -0 -0 -0 -0 -0 -0 -0 -0 -0 -0 -0 -0
-0 -0 -0 -0 -0 -0 -0 -0 -0 -0 -0 -0 -0 -0 -0 -0 -0 -0 -0 -0 -0 -0 -0 -0 -0 -0 -0 -0 -0 -0 -0 -0 -0 -0 -0 -0 -0 -0 -0 -0 -0 -0 -0
-1 -0 -0 -0 -0 -0 -0 -0 -0 -0 -0 -0 -0 -0 -0 -0 -0 -0 -0 -0 -0 -0 -0 -0 -0 -0 -0 -0 -0 -0 -0 -0 -0 -0 -0 -0 -0 -0 -0 -0 -0 -0 -0
Wind_Speed
11 12 11 11 9 8 8 5 8 4 4 nan 6 7 8 11 7 5 3 4 5 4 4 4 1 1 2 4 5 6 7 9 9 2 5 6 7 7 8 9 11 11 11
17 16 15 14 14 12 7 5 10 7 nan 9 6 7 12 11 9 8 7 9 8 7 6 10 7 8 10 10 10 10 9 7 10 9 11 12 10 12 10 13 12 10 9
17 22 19 17 16 17 13 11 12 11 10 10 10 12 12 13 13 10 10 12 12 11 10 10 7 10 10 10 11 12 12 11 14 16 12 16 14 13 13 13 12 11 10
26 24 20 20 15 26 22 17 15 17 16 14 12 12 13 16 19 18 17 14 17 16 13 10 9 17 16 14 14 14 14 15 17 17 15 15 17 13 14 15 15 14 11
28 31 22 18 19 23 31 24 20 19 18 19 17 21 25 23 22 18 20 26 28 25 25 22 22 25 24 21 19 17 18 18 17 18 17 17 17 16 17 14 14 14 12
31 26 22 21 20 23 28 21 23 24 15 25 30 28 29 27 25 25 22 27 23 nan nan nan 21 27 25 25 24 21 18 18 18 21 21 20 17 17 16 17 16 16 18
21 27 32 32 30 31 31 27 29 29 37 36 33 31 34 30 32 nan 24 25 24 25 nan 25 23 26 28 23 22 28 27 29 22 26 23 20 19 nan 20 19 20 19 17
26 25 28 31 33 35 nan nan 30 38 nan 44 36 32 nan 34 nan nan 30 37 40 39 36 31 31 nan nan nan nan nan nan 32 32 nan nan nan nan nan nan 26 23 22 23
22 24 nan nan nan nan nan nan nan nan nan 39 nan nan nan nan nan 44 40 39 40 nan nan nan nan nan nan nan nan nan nan nan nan nan nan nan nan nan nan nan nan nan nan
25 26 nan nan nan nan nan nan nan nan nan nan nan nan nan nan nan nan 45 40 nan nan nan nan nan nan nan nan nan nan nan nan nan nan nan nan nan nan nan nan nan nan nan
32 29 27 nan nan nan nan nan nan nan nan nan nan nan nan nan nan nan nan nan nan nan nan nan nan nan nan nan nan nan nan nan nan nan nan nan nan nan nan nan nan nan nan
39 34 33 28 nan nan nan nan nan nan nan nan nan nan nan nan nan nan nan nan nan nan nan nan nan nan nan nan nan nan nan nan nan nan nan nan nan nan nan nan nan nan nan
43 42 40 nan 36 nan nan nan nan nan nan nan nan nan nan nan nan nan nan nan nan nan nan nan nan nan nan nan nan nan nan nan nan nan nan nan nan nan nan nan nan nan nan
50 nan nan nan 41 39 38 nan nan nan nan nan nan nan nan nan nan nan nan nan nan nan nan nan nan nan nan nan nan nan nan nan nan nan nan nan nan nan nan nan nan nan nan
51 nan nan nan nan nan nan 44 nan nan nan nan nan nan nan nan nan nan nan nan nan nan nan nan nan nan nan nan nan nan nan nan nan nan nan nan nan nan nan nan nan nan nan
nan nan nan nan nan nan nan 46 54 nan nan nan nan nan nan nan nan nan nan nan nan nan nan nan nan nan nan nan nan nan nan nan nan nan nan nan nan nan nan nan nan nan nan
nan nan nan nan nan nan nan nan 46 nan nan nan nan nan nan nan nan nan nan nan nan nan nan nan nan nan nan nan nan nan nan nan nan nan nan nan nan nan nan nan nan nan nan
nan nan nan nan nan nan nan nan nan nan nan nan nan nan nan nan nan nan nan nan nan nan nan nan nan nan nan nan nan nan nan nan nan nan nan nan nan nan nan nan nan nan nan
nan nan nan nan nan nan nan nan nan nan nan nan nan nan nan nan nan nan nan nan nan nan nan nan nan nan nan nan nan nan nan nan nan nan nan nan nan nan nan nan nan nan nan
nan nan nan nan nan nan nan nan nan nan nan nan nan nan nan nan nan nan nan nan nan nan nan nan nan nan nan nan nan nan nan nan nan nan nan nan nan nan nan nan nan nan nan
nan nan nan nan nan nan nan nan nan nan nan nan nan nan nan nan nan nan nan nan nan nan nan nan nan nan nan nan nan nan nan nan nan nan nan nan nan nan nan nan nan nan nan
nan nan nan nan nan nan nan nan nan nan nan nan nan nan nan nan nan nan nan nan nan nan nan nan nan nan nan nan nan nan nan nan nan nan nan nan nan nan nan nan nan nan nan
nan nan nan nan nan nan nan nan nan nan nan nan nan nan nan nan nan nan nan nan nan nan nan nan nan nan nan nan nan nan nan nan nan nan nan nan nan nan nan nan nan nan nan
nan nan nan nan nan nan nan nan nan nan nan nan nan nan nan nan nan nan nan nan nan nan nan nan nan nan nan nan nan nan nan nan nan nan nan nan nan nan nan nan nan nan nan
nan nan nan nan nan nan nan nan nan nan nan nan nan nan nan nan nan nan nan nan nan nan nan nan nan nan nan nan nan nan nan nan nan nan nan nan nan nan nan nan nan nan nan
nan nan nan nan nan nan nan nan nan nan nan nan nan nan nan nan nan nan nan nan nan nan nan nan nan nan nan nan nan nan nan nan nan nan nan nan nan nan nan nan nan nan nan
Wind_Direction
236 235 230 238 232 230 246 246 266 262 253 nan 264 219 279 271 261 251 256 242 259 252 254 259 171 251 254 265 254 243 230 244 258 237 309 269 254 283 294 330 341 1 344
252 256 243 244 259 256 233 246 272 271 nan 241 241 256 268 267 267 265 257 230 248 218 235 242 225 232 234 247 248 239 257 285 288 281 270 265 276 274 296 295 294 302 321
245 258 254 250 253 262 263 260 258 249 253 251 244 239 249 255 254 257 267 263 259 251 250 252 246 257 265 268 264 264 269 261 263 269 277 287 287 281 288 285 289 285 276
232 229 245 244 242 251 252 241 259 265 261 250 250 251 252 244 242 251 253 250 243 245 242 254 255 256 259 261 263 258 264 263 267 270 275 277 286 286 294 287 275 275 264
241 227 239 239 243 244 248 235 232 257 263 262 255 244 254 250 246 243 261 269 248 237 241 231 239 246 255 257 263 256 261 265 268 271 275 279 282 281 274 282 282 281 274
245 254 237 232 236 238 247 242 246 245 241 244 245 249 250 250 244 244 253 263 271 nan nan nan 228 235 237 236 238 249 262 267 269 271 273 276 276 279 280 276 276 271 281
254 247 245 244 246 242 250 252 272 278 253 256 253 251 253 241 234 nan 257 271 278 271 nan 266 240 241 242 244 247 254 251 250 263 265 263 265 269 nan 272 271 271 274 277
268 261 253 252 257 253 nan nan 263 268 nan 247 248 251 nan 242 nan nan 260 265 263 265 267 269 265 nan nan nan nan nan nan 259 259 nan nan nan nan nan nan 278 278 275 273
261 254 nan nan nan nan nan nan nan nan nan 260 nan nan nan nan nan 247 261 264 266 nan nan nan nan nan nan nan nan nan nan nan nan nan nan nan nan nan nan nan nan nan nan
244 243 nan nan nan nan nan nan nan nan nan nan nan nan nan nan nan nan 252 264 nan nan nan nan nan nan nan nan nan nan nan nan nan nan nan nan nan nan nan nan nan nan nan
253 256 267 nan nan nan nan nan nan nan nan nan nan nan nan nan nan nan nan nan nan nan nan nan nan nan nan nan nan nan nan nan nan nan nan nan nan nan nan nan nan nan nan
255 253 253 253 nan nan nan nan nan nan nan nan nan nan nan nan nan nan nan nan nan nan nan nan nan nan nan nan nan nan nan nan nan nan nan nan nan nan nan nan nan nan nan
254 252 252 nan 248 nan nan nan nan nan nan nan nan nan nan nan nan nan nan nan nan nan nan nan nan nan nan nan nan nan nan nan nan nan nan nan nan nan nan nan nan nan nan
249 nan nan nan 252 250 256 nan nan nan nan nan nan nan nan nan nan nan nan nan nan nan nan nan nan nan nan nan nan nan nan nan nan nan nan nan nan nan nan nan nan nan nan
251 nan nan nan nan nan nan 254 nan nan nan nan nan nan nan nan nan nan nan nan nan nan nan nan nan nan nan nan nan nan nan nan nan nan nan nan nan nan nan nan nan nan nan
nan nan nan nan nan nan nan 254 251 nan nan nan nan nan nan nan nan nan nan nan nan nan nan nan nan nan nan nan nan nan nan nan nan nan nan nan nan nan nan nan nan nan nan
nan nan nan nan nan nan nan nan 265 nan nan nan nan nan nan nan nan nan nan nan nan nan nan nan nan nan nan nan nan nan nan nan nan nan nan nan nan nan nan nan nan nan nan
nan nan nan nan nan nan nan nan nan nan nan nan nan nan nan nan nan nan nan nan nan nan nan nan nan nan nan nan nan nan nan nan nan nan nan nan nan nan nan nan nan nan nan
nan nan nan nan nan nan nan nan nan nan nan nan nan nan nan nan nan nan nan nan nan nan nan nan nan nan nan nan nan nan nan nan nan nan nan nan nan nan nan nan nan nan nan
nan nan nan nan nan nan nan nan nan nan nan nan nan nan nan nan nan nan nan nan nan nan nan nan nan nan nan nan nan nan nan nan nan nan nan nan nan nan nan nan nan nan nan
nan nan nan nan nan nan nan nan nan nan nan nan nan nan nan nan nan nan nan nan nan nan nan nan nan nan nan nan nan nan nan nan nan nan nan nan nan nan nan nan nan nan nan
nan nan nan nan nan nan nan nan nan nan nan nan nan nan nan nan nan nan nan nan nan nan nan nan nan nan nan nan nan nan nan nan nan nan nan nan nan nan nan nan nan nan nan
nan nan nan nan nan nan nan nan nan nan nan nan nan nan nan nan nan nan nan nan nan nan nan nan nan nan nan nan nan nan nan nan nan nan nan nan nan nan nan nan nan nan nan
nan nan nan nan nan nan nan nan nan nan nan nan nan nan nan nan nan nan nan nan nan nan nan nan nan nan nan nan nan nan nan nan nan nan nan nan nan nan nan nan nan nan nan
nan nan nan nan nan nan nan nan nan nan nan nan nan nan nan nan nan nan nan nan nan nan nan nan nan nan nan nan nan nan nan nan nan nan nan nan nan nan nan nan nan nan nan
nan nan nan nan nan nan nan nan nan nan nan nan nan nan nan nan nan nan nan nan nan nan nan nan nan nan nan nan nan nan nan nan nan nan nan nan nan nan nan nan nan nan nan